CAPE
2239 2355 2269 1914 1477 1506 1818 1800 1811 1792 2632 1808 2014 2531 2036 1576 1599 1433 884 966 723 783 705 615 503 547 569 742 626 1010 1044 1124 1131 821 1136 2218 1844 2100 2791 2608 2749 2986 3062 3104 2983 2990 3010 2795 2871 2920 3017 2964 3056 2960 3002 3058 3013 3022 3010 2834 2726 2654 2626 2505 2396 2256 2292 1774 2527 2054 1711 1689 1724 1165 1054 975 822 883 1044 789 693 517 905 948 922
1692 1466 1367 1708 1652 1774 1707 1435 1547 1958 2351 1942 2112 1992 1701 1427 1473 1135 822 674 496 562 567 616 597 534 852 1089 908 873 958 1380 1540 1218 1203 994 1449 1786 2740 2627 2842 2763 2976 3127 3363 3490 3413 3325 3256 3319 3384 3459 3374 3503 3502 3531 3508 3487 3450 3488 3481 3234 3076 2974 2627 2488 2442 2242 2015 2593 2200 1840 1934 1658 1278 1085 1017 852 924 955 848 822 1039 844 614
1096 1191 1372 1735 1920 1896 1925 1704 1540 1657 1844 1954 1960 1899 1915 2024 1074 1101 914 675 482 531 570 288 396 514 667 633 428 857 1224 1254 1722 1496 1028 1357 2012 2461 2395 3305 2506 2830 2933 3025 3084 3139 3336 3549 3479 3389 3716 3769 3819 3757 3833 3868 3973 4003 3961 3860 3726 3565 3453 3332 3139 3014 2591 2540 2338 2158 2454 2311 1920 1756 1712 1449 1311 1092 1075 1109 1026 935 664 798 451
1434 1796 2016 1898 1902 1905 2012 1971 1860 1941 1983 2036 1957 2017 1922 1772 2478 2720 2122 1392 555 429 590 501 646 221 540 455 602 872 1282 1499 645 403 496 1296 1581 1969 3099 2894 3216 3119 3013 3089 2998 2831 2840 3169 3614 3594 3508 3792 3988 4012 4062 4177 4274 4134 4157 4041 3925 3994 3871 3513 3465 3400 2943 2944 2738 2401 2187 2135 2438 2100 1912 1635 1620 1159 1218 1126 1015 778 666 575 527
2350 2249 2073 2041 1986 2166 2001 2099 2251 2266 2303 2031 2291 2568 2392 1259 1935 2772 2949 1633 1010 482 707 669 530 513 682 530 779 587 556 632 958 1036 795 1136 1999 1814 2373 3565 3368 3737 3714 3472 3280 3229 3272 3258 3286 3803 3819 3890 4105 4261 4366 4528 4457 4388 4162 4224 4195 4114 4125 4102 3793 3758 3427 3208 3099 3003 2834 2806 2474 2297 1999 1830 1662 1561 1330 1285 1190 977 912 572 551
2774 2509 2094 2222 2290 2252 2338 2478 2324 2106 2543 2683 1935 2163 2449 1985 1548 1797 1716 1875 1074 1259 1131 841 573 667 1004 519 652 807 1140 1207 1128 195 1242 1131 1230 1824 2180 2487 3228 3868 3660 4080 3844 3838 3829 3697 3769 4173 4257 4060 4218 4438 4529 4421 4469 4451 4293 4279 4270 4298 4234 4366 4276 4219 4050 3838 3373 3391 3191 3210 2929 2482 2216 2126 1887 1656 1536 1398 1324 1230 1198 874 613
2725 2700 2078 1997 2115 2236 2272 2335 2372 2483 2437 3083 2670 2525 2392 2199 2649 2505 2696 2177 1866 1536 1247 957 464 66 782 1176 785 643 1400 787 736 365 797 1005 1423 1113 1706 1839 1984 2184 3453 3756 4172 4060 4192 4316 4196 4265 4109 4237 4310 4365 4184 4341 4516 4396 4393 4334 4432 4363 4480 4402 4567 4463 4356 4338 3996 3672 3505 2948 2990 2749 2701 2538 2066 1746 1630 1408 1495 1496 1387 1081 748
2870 2915 2763 2246 2110 2330 2585 2892 3030 2648 2604 3308 3052 2210 3007 3380 2622 2758 3465 2709 2375 1618 1370 825 925 765 587 604 432 718 1022 964 1150 975 594 1228 1219 1798 1794 1828 1645 1726 2535 2204 3746 4094 3416 4365 3923 3798 4491 4421 4208 3902 4195 4325 4435 4470 4414 4653 4565 4565 4557 4620 4818 4641 4556 4340 4259 4040 3710 3420 3137 3154 2927 2622 2180 1846 1516 1398 1518 1572 1366 1124 932
4213 3723 2821 2348 2472 2615 2760 3276 3288 2992 3842 3959 2529 2525 3224 2583 3496 2926 3014 4287 2651 1646 965 1105 750 915 516 874 568 808 961 567 856 485 598 1019 1673 942 1343 583 1656 2679 3576 2163 2618 3055 3383 3703 4022 4105 4103 3920 3711 4020 4177 4324 4487 4893 4825 4768 4694 4748 4803 4906 4829 4643 4432 4282 4129 3972 3944 3816 3456 3382 3280 3216 2720 2176 1823 1561 1319 1325 1368 1295 1153
3994 4097 3283 1935 2256 2242 2821 3120 2894 2515 3631 3047 2642 2201 2720 2582 3351 2947 3434 3900 3221 1804 1496 1057 480 818 810 459 1221 870 383 710 809 742 611 622 917 952 971 938 872 1217 1465 1614 1530 2934 3181 3775 3939 3832 3601 3947 3764 4451 4312 4338 4661 4999 5122 4924 4806 4728 4739 4666 4638 4387 4222 4050 3978 4076 4129 4025 3894 3776 3576 3064 2811 2386 2016 1734 1402 1206 1305 1449 1314
3795 4074 2993 2336 2492 2603 2955 3804 2926 3933 3776 3522 2458 2722 2855 2848 2964 3047 3898 3724 2184 1333 818 566 931 1066 341 440 407 1285 1018 496 1291 1369 1110 855 721 960 667 1049 943 1300 1618 1929 2058 2291 2716 3267 4265 4255 3790 3818 4306 4424 4275 4542 4775 4844 4936 4885 4869 4794 4652 4580 4482 4596 4228 4094 4053 3995 4090 4043 3952 3836 3728 3601 3256 2394 2054 2028 1884 1417 1428 1547 1519
3819 4294 3743 3055 2600 2857 3139 3176 2883 3210 3521 2779 1874 2768 3138 3722 3138 2900 3826 2935 1748 1010 614 879 390 541 495 608 1012 1174 1609 1183 1231 828 729 489 944 940 816 535 744 933 1145 1236 1392 2381 2928 3015 2902 3137 3677 3848 3724 4211 4523 4789 4801 4697 4660 4909 4806 4738 4674 4632 4475 4378 4255 4128 4121 4032 3963 3930 3923 3837 3721 3503 3480 2892 2483 2271 2133 1844 1486 1618 1686
4027 3669 3473 3482 3412 3382 3418 3562 3044 3239 3627 3443 3094 3084 2682 3179 2792 3342 2616 2370 1664 383 472 1074 501 765 891 620 745 753 882 1046 1004 802 745 460 368 433 586 757 916 1371 1613 1890 1958 1972 1688 2176 2189 2090 3148 4629 4871 4572 4337 4110 4745 4348 4420 4861 4918 4719 4563 4518 4454 4261 4127 3991 3891 3868 3846 3713 3600 3391 3442 3336 3245 3245 3158 2526 2182 2273 1899 1528 1699
3531 4130 3466 3178 3448 3213 3356 3705 3719 3401 3728 3609 2768 2702 3015 3634 3098 3611 2615 1783 1026 982 942 1685 859 290 664 918 668 574 620 425 581 454 635 396 245 376 822 846 734 1396 1749 1582 1238 1216 1600 1947 2274 1848 2798 2924 3057 5302 6252 4825 4281 3739 3998 4434 4998 4883 4680 4593 4472 4383 4270 4012 3677 3551 3243 3114 2886 2559 2533 2847 3111 3132 3147 3118 2862 2682 2429 2120 1591
3675 3561 3240 3265 3305 3411 3321 3712 3930 3062 3152 3232 3236 2873 3322 3381 3653 3084 2999 1486 814 993 1776 1811 783 1010 721 546 471 455 496 495 532 309 334 404 422 343 555 570 724 1018 1336 1172 1208 1857 1704 2091 2059 2123 2876 2578 2782 3533 3706 4589 4412 4487 3648 3632 4287 5000 4802 4578 4565 4507 4298 4002 3759 3187 2850 2616 2320 2177 2035 2195 2336 2462 2668 2836 3002 2973 2703 2396 2092
3175 3072 3003 3227 3070 3325 2784 3117 3454 4116 3998 3696 3614 3257 2719 3930 2860 3186 3776 3225 1029 1162 1057 1627 2421 1254 941 1396 886 308 643 736 761 281 205 283 310 321 476 504 681 1159 1018 912 1098 1582 2104 2175 1963 3128 2844 3069 3033 2450 2787 4564 5212 4994 4490 3839 3988 4551 4865 4724 4530 4416 4138 3999 3584 2858 2509 2376 2281 2074 1855 1688 1756 1785 2006 2342 2544 2755 2751 2542 2238
3006 3187 2848 3294 3391 3436 3416 3143 3454 3321 3512 2983 4051 3193 3356 2440 2929 3330 2526 2353 989 1094 1122 1470 2086 2289 2318 1817 978 1498 1202 732 381 922 682 250 245 9 444 443 444 681 747 850 960 819 1174 1634 1964 1946 2572 2908 2968 3240 3085 4334 4927 5427 5216 4400 3902 4076 4597 4802 4534 4369 4138 4012 3522 2870 2414 2155 2241 2166 2041 1842 1446 1438 1454 1691 2040 2146 2463 2891 2461
3030 3138 2986 3130 3320 3496 3394 3184 3072 3199 3290 3063 3082 2364 3274 3347 2342 2705 2579 2384 1870 1139 934 1162 1142 1688 1995 2068 1485 1924 1722 746 637 848 913 737 286 128 518 501 408 903 1308 903 926 619 922 1230 1148 1570 2198 1947 1858 2696 3520 2418 3838 3718 4596 4817 3979 3666 4176 4320 4628 4330 4117 3690 3542 3025 2547 2286 2168 2030 1914 1796 1686 1412 1358 1422 1307 1696 2023 2379 2743
3048 3139 3177 3279 3356 3331 3464 3293 3060 3089 2932 2725 2511 2869 2274 3156 3200 3272 3236 3165 2442 1884 1432 1309 1777 1807 1400 1208 1660 1438 1190 1356 1245 471 533 611 1003 532 274 450 684 657 738 774 878 740 623 1123 1241 1075 2073 2177 2097 1849 1212 2213 3304 4066 4408 3535 3850 3965 3722 3902 4242 4454 3973 3797 3399 3046 2493 2358 2342 2233 2038 1713 1434 1529 1385 1044 1019 1246 1566 1931 2414
2707 3170 3275 3125 3265 3131 3345 3405 3184 3017 2436 2534 3006 2892 3063 3152 3003 2829 3206 3428 3151 2672 2572 1622 1457 1645 1910 1892 957 544 1018 1105 1310 1328 1539 612 615 705 656 449 561 496 714 445 886 1127 1083 943 1018 1375 1380 1558 1614 963 1282 1999 4225 4730 3467 3163 4308 3842 3292 3761 3904 4067 4389 3636 3283 2814 2811 2354 2105 1970 1752 1458 1270 1304 1224 863 812 1043 1182 1238 1635
3072 2918 3004 3093 2897 3256 3247 3448 3154 3138 2392 2933 2664 2836 3016 3391 3003 3342 3036 3095 3582 2569 3070 2530 2223 1322 2201 2597 2337 2100 1295 956 717 711 1713 1684 566 597 550 573 267 531 144 578 655 1046 1316 1352 1856 1573 2252 1855 1594 1716 1852 2342 3565 4129 3471 3215 4358 4012 3768 3778 3487 4005 4060 4093 3216 3189 2569 2482 2428 1976 1401 1056 970 1012 929 874 892 1049 852 984 944
2634 2856 2748 3214 2807 3104 3040 2951 3249 3048 2219 2512 2929 3270 3339 2996 3106 3409 3758 3736 3170 2819 2762 2568 2578 2230 2066 2015 2693 1717 1990 1754 1594 1050 818 982 1034 956 951 969 1124 764 671 580 553 770 616 955 1158 1374 2019 2513 1540 2952 2308 2352 3020 2252 3758 3397 4486 4099 3982 3487 3533 4005 3972 3673 3766 3173 3107 2973 2377 2125 1537 1362 1087 680 678 890 807 498 703 702 854
1595 2182 2632 2667 3017 2949 2933 3015 2616 3169 2630 3508 3002 2736 2564 2406 2426 3194 3044 3625 2879 3370 2050 1595 2226 1716 1754 1776 2155 1647 1350 1837 1070 1215 1222 1290 1568 1194 760 596 850 810 693 567 535 931 1018 921 814 900 1770 2286 1121 1684 3233 3236 2748 3015 3412 3286 4016 4578 4180 3564 3450 3482 3208 3418 3560 3351 2973 2618 2464 2254 2128 1616 1384 1178 1194 861 483 399 354 470 502
2239 2091 1746 2034 2431 2750 3078 3133 3068 3223 2607 2730 3028 2667 2752 2616 3128 2792 3108 3122 3320 3070 2971 3221 2258 2352 1726 1686 1054 1323 1144 1247 1412 986 666 1455 1110 1297 958 851 1320 908 829 1098 355 800 569 1222 900 1229 1082 1752 1531 4002 2754 1602 3515 3128 4290 3886 3694 4189 3863 3937 3231 3469 3188 2960 3229 3653 3216 2952 2468 2336 2299 2233 1972 1615 1414 1426 1289 645 313 308 279
2294 2205 1827 1692 2034 2570 2816 3042 3359 3220 3247 3002 3212 3193 3264 3059 3081 2673 3229 3592 2932 3034 2465 3066 2297 2500 2235 2034 1304 1124 1496 859 694 1393 1056 493 1050 613 626 621 794 2137 863 1038 758 616 553 1239 1307 737 2145 1983 1915 3208 2491 2187 2905 3194 3592 3816 3431 3658 4233 4057 3615 3248 3007 2925 2883 2820 2973 3082 2943 2650 2293 2273 2254 2171 1971 1772 1650 1550 1361 509 123
2152 1895 1989 1629 1939 2141 2470 2598 3216 3487 3272 3450 3307 3118 2992 3264 3245 2600 3246 2678 3632 3438 2873 2673 2422 2116 1600 1781 2135 1666 971 1504 1353 587 984 1179 1304 1409 1354 877 642 1314 1596 1656 1202 716 413 1972 1687 2559 1804 1967 1891 3358 2576 1533 2185 3622 2440 3543 3607 3797 3835 4220 4424 3420 2953 2890 2904 2898 2767 2844 2842 2641 2514 2333 2227 2211 2196 2113 1944 1837 1680 1575 1157
2263 2191 2067 2142 1958 2317 2259 2573 2839 3450 3447 3384 3080 3117 3253 3170 3674 2980 3243 3547 2871 2983 3585 2678 2500 2068 2251 1923 1486 1628 1689 1230 818 959 1525 1238 1414 1314 1944 1719 1601 957 908 830 1199 1538 1138 1405 2151 1374 2318 3576 1883 2661 3186 1862 2155 2253 2048 2669 5328 3633 3883 3674 4092 4188 3515 2975 2821 2865 2878 2749 2727 2806 2683 2559 2337 2226 2153 2136 2119 2012 1926 1821 1673
2315 2703 2285 2256 2446 2583 2552 2568 2880 3210 3272 3667 3490 3263 3356 3231 3509 3505 2916 2921 3384 3455 2837 2625 2398 2226 2052 2326 2298 1239 1290 1564 1743 1800 1819 2107 1647 1712 2002 1772 2195 1885 1090 765 1009 1358 679 876 1805 2472 2380 2582 2009 1888 1688 1879 1383 2608 1905 1660 2661 5868 4117 2599 3364 3710 3637 2975 2820 3003 2903 2834 2765 2706 2755 2631 2599 2441 2262 2190 2091 2054 2052 1921 1865
2482 2677 2878 2508 2527 2577 2592 2376 2727 3198 3538 3615 3514 3927 5052 3852 3724 3588 3354 2820 3640 4203 3640 3299 3152 2744 2448 1874 2024 1945 1619 1574 1484 1190 1966 1785 1295 1391 1524 1414 2307 2305 2238 2138 1993 1134 937 1099 1133 2347 2258 2648 3108 1385 1616 2550 2220 2214 1993 2088 1627 1662 4601 2664 2686 2829 3075 3054 2720 2804 2886 2872 2794 2838 2774 2668 2742 2675 2557 2424 2365 2206 2063 1998 1925
2292 1980 2427 2672 2939 2533 2845 2859 2889 3074 3310 3311 3647 3852 5197 3759 3727 4405 3612 3380 4382 4193 3466 3336 3235 2762 2533 2666 2435 1775 1762 1548 1592 1454 2004 2178 1442 1392 1582 2191 2408 2280 2403 2450 2572 1932 1054 940 1044 2112 3588 2113 1591 1186 544 715 3212 2606 1641 2243 1588 1921 2909 2714 2637 3142 2742 2756 2760 2844 2893 2927 2845 2809 2896 2954 2664 2610 2612 2672 2697 2630 2447 2201 1949
1974 2880 2572 2958 2990 2523 3236 3099 3473 3762 3622 3267 3640 3798 4172 3612 3229 3753 3462 4180 4133 3873 4095 3407 2739 2876 3232 2970 2778 2269 2100 1891 1536 1480 1813 2080 1649 1465 1540 1523 1629 2122 2449 2705 2536 2532 1257 1034 817 1375 1147 1529 1364 1355 1124 1123 1953 1601 1786 2365 2396 2351 2326 3550 3127 3207 2984 2731 2836 2804 2878 2928 2821 2757 2691 2642 2527 2437 2480 2525 2586 2674 2690 2562 2342
2292 2475 2658 2499 2658 2929 2266 2473 2639 2776 3484 2934 3464 3822 4064 3392 2682 2421 3543 4243 3604 3644 3485 3358 2866 2762 3252 2826 2950 2902 2660 2425 1955 1496 1491 1890 1928 1596 1512 1789 1928 1949 2319 2775 2876 3000 2237 1062 1135 974 1175 1583 1264 1955 1999 1225 1159 1549 2803 2332 3288 2283 3835 2211 3367 3350 3068 2814 2508 2581 2552 2529 2653 2687 2736 2700 2532 2460 2472 2463 2456 2506 2591 2640 2570
1636 2391 2266 2483 2730 2598 2576 2116 2209 2476 3110 2711 2785 3249 3617 3541 3496 3736 3255 3699 4127 3666 3786 3455 3265 3184 3847 3685 3788 3863 3837 2945 2560 2271 1975 2162 2670 2128 1816 1732 1795 2197 2405 2855 2837 2793 2764 2185 1726 1554 1275 1431 1593 1520 1775 1674 1167 1694 1713 1715 1997 1859 1181 1031 2750 3720 3245 2574 2396 2248 2169 2261 2368 2445 2445 2388 2468 2519 2539 2493 2459 2427 2464 2535 2599
2107 2257 2438 2317 2483 2632 2469 2471 2362 2616 3164 3660 2684 2029 3224 4018 3552 2796 3366 3939 4588 3786 3949 4493 4205 3713 3964 3690 3202 3284 3082 3170 2656 2406 2204 1969 1568 2198 2456 2506 2727 2855 3356 3558 3568 3146 3013 3549 3086 2836 2336 1487 2278 1917 1935 2125 2135 2039 1821 2055 1687 899 840 732 762 4125 2868 2144 2204 1840 1942 2094 2098 2097 1979 2035 2204 2318 2330 2360 2355 2375 2378 2369 2440
2072 2229 2363 2165 2315 2652 2562 2392 2755 2814 3557 3245 2675 2864 3185 3767 3587 2869 2406 3059 3210 3149 2924 3265 3523 3491 3517 3338 3065 2666 2457 2943 3193 2590 1861 2071 2632 2626 2715 2528 2352 2826 2454 4143 4199 3805 3420 3482 3495 2874 2659 2544 2399 2256 2291 1778 2107 1855 1962 1681 1186 1021 817 1090 853 1333 3214 1949 1121 1469 1637 1618 1695 1594 1729 1864 1915 1908 1900 1960 2040 2110 2222 2283 2310
1734 1620 2112 2120 2503 3119 2841 2970 3358 2853 3388 3136 2967 2659 3201 3768 3667 3107 3124 2823 3404 3313 3361 3349 3313 3162 3198 3645 3292 2542 2367 2872 3788 3403 3093 2914 2969 3087 3308 3002 3563 3518 3980 3108 3703 3872 3609 3408 3438 3010 2657 2411 2500 2334 1833 1782 1225 1354 1090 1220 1104 1378 1273 1188 736 298 3912 1716 728 1166 1022 1187 1163 1425 1622 1596 1521 1463 1519 1657 1733 1784 1866 1997 2072
1057 1805 1840 2109 2670 3714 2982 3082 3450 3186 2958 2985 2840 2671 2823 2839 2965 3098 2948 3077 2781 3178 3120 3214 3224 3261 3522 3267 3271 3013 2764 2965 3429 3378 2807 3055 3440 3283 3110 2992 3243 3375 3458 3677 3627 3666 3736 3047 3211 2974 2769 2544 2430 2232 1962 1844 1500 1161 1298 1941 1241 1238 1314 1151 762 256 1520 873 1052 924 1189 1117 1247 1375 1308 1230 1271 1264 1328 1395 1425 1468 1521 1560 1594
1002 1221 1879 1912 2404 3443 3031 2894 3012 3295 3227 3277 3107 2862 2645 2604 2618 2597 2486 2862 2775 3204 2838 2800 2814 2707 2381 2419 2428 2709 2949 3096 3055 2861 3328 3701 3720 2894 2739 3075 2910 2952 2918 3337 3029 2961 3084 3435 3149 2466 2337 1814 1696 1696 1404 1172 1029 1207 1455 1552 1447 1454 1569 1390 1310 935 290 154 162 1639 1564 1283 1120 1254 1212 1218 1207 1176 1105 1008 1026 1116 1162 1183 1201
826 361 1243 1958 2166 2886 2972 2836 2969 3212 3383 3263 3541 3192 2856 2543 2539 2499 2208 2377 2365 2666 2642 2568 2705 2813 2439 2254 2524 2548 2391 2579 2737 2313 2636 2481 2541 2690 3163 2772 2489 2543 2174 1808 1562 1604 1750 1710 1584 1542 1387 1110 1282 1407 1164 1003 1027 1174 1301 1182 1499 1022 1730 2012 2563 2060 1610 982 1017 546 544 490 1026 1867 1379 1272 1262 1081 1264 1394 1285 1072 984 950 964
372 647 622 1427 2041 2301 2801 2584 2652 2916 3547 2640 2833 3115 2466 2504 2544 2850 2890 2668 2459 2472 2393 2500 2370 2370 2468 2443 2223 2533 2452 2545 2570 2478 2545 2305 2503 2822 3040 3209 3017 2597 2425 1793 1630 1640 1750 1450 1333 1219 1430 2346 2117 1054 719 925 1179 1360 1038 1038 1529 1900 2270 3096 2001 1668 2026 1847 1634 828 400 623 523 1102 1216 1370 1506 1594 1678 1725 1751 1603 1238 1069 927
617 641 558 614 1463 1962 2246 2520 2314 2342 2674 2936 2659 2986 3272 2852 2461 2344 2674 2651 2406 2637 2839 2661 2391 2239 2217 2327 2504 2353 2702 2974 4182 4019 3567 2701 2733 3190 3053 2804 2800 2632 2690 2667 2202 2415 2434 1875 1923 2003 1465 1458 1508 1796 655 644 1070 958 607 552 1214 1102 1216 1246 1850 1688 1783 1386 1095 775 1014 1676 1767 1387 1193 1457 2701 2035 2166 2175 2086 1723 1489 1343 1032
1270 1182 907 564 731 1459 1891 2219 2328 2102 2077 1889 2007 2045 2336 1714 1345 1680 2146 2534 2604 2589 2846 2787 2304 2469 2117 1881 1403 1751 3627 2976 3732 3484 2695 3556 3316 2507 2979 3400 3673 3588 3547 3340 3231 2588 2157 2089 1799 1204 766 455 326 547 387 397 506 692 593 795 988 854 1600 1570 2292 2000 1925 1810 1767 2459 2200 2284 2238 2158 2284 1981 1622 4030 3580 2394 1982 2050 1984 1926 1496
1771 1846 1190 795 579 787 1330 1762 1970 1608 1302 1573 1455 1805 1749 2153 2442 2826 2058 2730 3097 3019 3226 3521 3079 2422 2081 1621 1276 3198 3874 3843 3191 4403 4285 3000 3780 3220 2841 2932 3505 3058 2322 2053 1994 1805 1827 1662 1003 630 377 699 606 672 697 342 337 372 558 1112 1156 1550 2168 2439 2464 3011 3586 2681 3359 2845 3064 2869 2841 2524 2494 2320 1541 1469 1187 1242 2478 2366 2438 2204 1482
2511 2234 1824 1275 1054 886 939 1187 1549 1452 1086 1936 1536 1892 1939 2027 2163 2328 2188 2514 2584 2826 2323 2164 2286 2061 1714 1407 1075 866 1541 2087 1509 3863 4075 4293 3528 3646 3395 3510 3449 3244 3230 3523 2755 1835 1638 1200 1182 1198 1165 1127 1216 1360 921 813 1746 2393 2932 3067 3231 2803 2872 2807 2816 2733 3106 2738 2607 3082 2740 2622 2323 2136 2389 2149 1994 1376 624 5128 1384 1847 1494 1223 1126
2309 2548 2478 1877 1434 1287 1048 1210 1164 965 1105 794 1509 1735 1662 1593 1350 1880 1436 1614 1875 2047 2261 2354 2316 1965 1843 1357 1835 1400 684 2660 2236 1978 3496 3798 3301 2871 3442 3665 3684 2913 2350 1811 1446 3058 3267 3089 2605 2118 1685 1800 2209 2307 2305 2872 3415 3561 3689 3466 3522 3220 3186 2985 2748 2070 3170 3798 3263 2789 2415 2258 2179 1878 2245 2175 1386 1362 938 822 651 794 1100 1275 1480
2807 2953 2656 2446 1931 2359 1500 1076 1841 1413 800 1046 1433 1517 1223 1372 1434 1371 1312 1220 1120 1656 1865 2263 2096 1901 2575 2476 2143 2179 2007 1919 2073 2200 2246 2216 2952 4518 4776 4349 4257 4193 3431 2364 1966 1387 1458 1841 1913 2144 2527 2338 2631 3187 3565 3646 3425 3655 3543 3580 3520 3482 3350 3383 3111 3082 3419 3298 2949 2821 2879 2779 2554 2383 2126 1932 1331 1640 1782 908 598 1139 1417 1619 1780
2406 2716 2997 2534 1693 1888 1391 1147 1062 1159 1042 870 1177 1202 1133 976 998 1067 1560 1184 1004 1107 1383 1579 2338 2196 2430 3128 3141 2924 2846 3047 3582 3346 3726 3159 3506 3605 3313 3228 2954 3165 2514 3045 3312 2795 2422 2409 2081 2396 2598 2715 2388 2625 2314 2258 2160 2366 2397 2570 2364 2192 2100 2214 2420 2665 2828 2886 2430 2336 2692 2103 1251 1156 1589 1439 742 822 1113 1382 908 844 1157 1601 1731
1966 2210 2076 2328 1631 1546 1291 750 380 878 836 1007 1031 1047 980 915 708 1066 1489 1696 1260 955 1081 1564 2142 2320 2693 2862 3313 3167 2708 2661 2918 2929 2796 2746 2694 2485 2532 2482 2786 2346 1944 1921 1709 1372 1428 1576 1438 1527 1946 1964 1692 1826 1879 1806 1976 2358 2468 2328 2138 2138 2189 2191 2224 1933 1749 1740 2146 2151 2101 1923 1875 1466 1668 1923 1698 1918 2009 2000 1137 1237 1303 1349 1387
2071 1752 1496 1163 1026 1031 856 1089 946 608 818 915 918 875 864 818 708 1436 1737 1480 1441 1402 943 1601 1853 2625 2816 2716 2795 2421 2226 2136 2687 2557 2054 1517 2576 2801 3034 2537 2648 2047 1800 1897 1508 1120 1126 1569 1725 1581 1618 1652 1588 1836 1962 1980 1919 1910 1846 2162 2441 2186 2126 2059 1976 1849 1761 1558 1666 1678 1752 1973 2055 2031 2006 2152 2162 1824 1590 1699 2134 1283 1421 1500 1314
1722 1554 1238 1420 1204 1003 941 883 783 645 974 1119 1218 1091 894 704 693 2166 2580 2092 1947 2299 2061 1920 2718 2604 1579 2862 2920 2385 1988 2004 2128 2066 1851 1568 2234 2586 2688 2459 2514 2415 2194 2168 2276 2340 1931 1955 1925 1902 2003 2034 2208 2216 2104 2088 2146 2097 1961 2180 1951 2016 2381 2184 1972 1746 1981 1975 2081 1960 2354 2304 1944 2010 2096 2000 2101 2385 2112 2112 2594 2196 2572 2196 1857
1125 1244 1007 1172 1083 1177 971 646 582 707 917 1136 1179 1016 850 832 834 2309 3578 2782 2660 1676 1265 1024 1345 1888 2030 1898 1622 1432 1634 1613 1665 1685 1416 1161 1038 965 1246 1504 1718 1987 1771 1351 1423 1384 1468 1509 1758 2275 3422 3188 3347 3384 3137 2593 2406 2266 2021 2052 2326 2268 2088 2014 2146 2055 2145 1934 2548 2646 2470 2428 2160 2247 2198 1880 1843 1888 2005 2216 2151 1588 1668 2981 3245
Wind_Speed
15 17 18 18 16 17 22 19 19 20 21 20 21 22 22 19 18 16 16 15 13 12 13 12 13 12 11 11 11 14 14 14 16 18 16 14 13 14 18 18 19 19 19 20 21 23 24 24 24 25 25 25 26 27 28 30 31 30 30 30 31 32 34 36 37 39 41 43 52 51 51 48 47 44 40 37 39 40 43 45 47 47 48 50 52
16 17 16 16 17 17 15 17 19 20 21 20 21 21 20 18 17 16 13 14 14 14 15 14 13 12 14 13 12 12 13 13 16 15 14 14 12 13 17 18 20 20 20 21 23 25 25 25 26 26 27 27 27 28 30 31 31 31 31 31 31 31 33 35 37 38 40 42 44 54 52 54 53 54 47 44 43 43 42 46 46 48 47 49 51
12 13 15 17 18 17 16 16 16 17 21 21 22 20 20 17 15 15 14 14 14 14 14 13 13 12 13 12 12 12 14 13 15 13 12 14 12 12 13 18 19 20 20 22 24 26 27 26 26 27 28 29 29 30 31 31 31 32 31 30 30 32 33 34 36 38 39 41 43 43 52 55 53 55 53 48 45 46 44 43 45 47 46 48 49
12 14 15 16 16 16 16 18 19 20 21 21 21 19 17 16 15 16 17 16 13 13 16 12 12 10 12 12 14 13 12 16 12 14 12 12 14 12 12 13 18 20 21 22 24 25 26 27 27 28 30 30 30 31 31 31 30 29 29 28 28 30 32 33 34 36 38 40 37 42 45 51 55 56 56 52 51 47 44 44 47 47 46 47 47
14 14 14 15 15 15 16 17 19 19 19 17 18 19 19 14 12 11 12 12 15 13 16 13 13 13 13 11 11 11 12 11 13 13 9 10 12 12 11 11 12 17 20 21 22 23 24 25 26 28 29 30 30 30 30 29 26 25 25 25 24 26 27 30 32 34 36 37 40 40 41 45 47 56 57 57 54 47 45 45 46 44 45 45 46
14 14 14 14 15 16 16 18 18 17 18 18 16 15 16 14 14 14 10 10 12 12 15 15 11 11 11 11 11 12 13 11 12 9 15 10 11 13 11 11 10 11 14 18 19 20 22 23 25 26 27 27 27 27 26 25 24 23 22 22 22 22 22 23 26 28 31 32 33 35 40 41 44 50 55 56 56 52 47 46 45 45 44 44 43
15 16 15 15 16 16 16 16 16 16 15 14 16 16 17 16 10 13 16 15 9 12 15 14 11 nan 12 14 10 10 13 8 13 9 12 12 13 11 13 12 11 11 10 9 14 18 18 20 23 23 23 23 23 22 22 22 22 20 19 20 21 19 19 19 21 24 25 28 29 34 35 35 38 43 52 55 56 54 50 46 45 46 45 41 41
16 18 19 20 16 16 16 15 13 13 14 15 14 11 12 11 11 9 10 13 13 11 13 13 13 8 9 10 9 11 10 10 11 10 7 10 10 10 11 11 11 9 11 7 9 9 14 17 18 19 19 18 17 16 17 18 18 17 16 18 18 18 17 17 18 20 20 22 24 27 31 35 37 42 44 48 55 54 50 47 46 44 43 39 39
18 19 19 17 15 14 12 12 12 12 15 13 10 10 10 11 10 11 9 11 15 10 14 13 10 10 7 9 8 13 9 10 9 7 8 9 11 9 7 8 10 7 11 8 6 5 11 14 14 15 15 12 12 12 13 14 14 13 13 14 15 15 16 15 16 15 16 17 19 20 23 26 33 39 44 44 49 53 50 49 47 44 42 40 37
18 19 20 14 12 11 9 9 7 6 10 12 11 6 5 8 10 9 9 11 13 10 12 12 10 7 9 5 11 8 7 9 9 9 5 6 11 11 11 10 9 11 10 9 7 5 7 10 12 13 10 10 9 10 10 10 11 11 12 13 13 14 15 16 15 15 14 13 13 14 15 19 23 27 36 44 45 49 48 49 48 45 44 42 38
15 16 14 12 11 9 8 10 8 8 10 13 8 10 11 8 9 6 9 15 11 11 11 13 9 10 4 5 6 11 10 7 8 9 9 7 8 9 4 6 7 7 8 6 5 8 9 4 8 7 5 8 7 7 6 7 7 9 11 12 13 13 14 15 14 13 11 11 10 10 10 13 16 21 24 32 42 43 47 47 47 46 47 44 41
13 13 13 12 9 9 7 8 7 5 8 11 9 9 6 7 9 7 7 9 11 7 9 10 7 10 11 7 7 7 10 9 9 5 6 4 4 10 4 8 10 9 12 12 9 9 8 9 8 7 2 7 7 5 4 4 5 8 10 11 12 12 13 13 13 12 11 10 9 8 8 10 12 16 19 23 33 42 44 44 44 45 46 46 44
9 10 10 10 9 7 7 8 6 3 5 8 6 8 7 8 6 7 7 5 7 3 8 10 7 7 7 7 6 5 4 5 9 7 7 3 5 7 7 4 4 9 9 10 6 4 6 5 6 10 4 4 5 5 5 3 5 7 9 10 10 10 11 12 12 12 11 10 9 8 8 9 10 12 14 17 21 32 40 40 43 44 44 46 45
6 7 6 7 7 5 5 6 5 4 5 5 5 6 6 7 7 6 6 6 5 9 7 12 8 3 3 6 7 7 6 8 9 4 5 4 4 5 7 4 8 5 8 5 7 7 8 5 7 5 7 7 5 5 6 3 4 6 6 8 8 9 9 10 10 11 11 10 9 8 8 8 9 10 12 13 14 18 25 35 40 42 41 43 45
4 3 4 5 4 3 3 4 4 3 5 5 4 4 6 6 6 6 9 7 5 5 5 13 6 8 9 4 2 2 7 10 11 8 5 4 4 5 3 6 9 6 5 6 4 4 7 6 8 9 7 4 4 3 1 1 2 3 5 6 8 8 9 9 10 10 11 11 10 9 8 8 9 9 10 11 12 14 17 19 25 36 38 40 41
2 3 2 2 1 3 3 2 2 3 3 4 4 4 4 6 4 4 3 8 3 5 6 9 14 8 2 5 3 1 0 7 6 5 5 8 1 2 2 5 5 2 6 3 5 8 7 9 9 11 7 8 2 1 2 1 5 5 3 4 7 9 8 9 10 10 11 11 11 11 10 9 9 10 9 9 10 11 13 16 19 22 30 37 38
1 2 1 1 0 2 1 1 1 3 2 2 5 3 4 3 6 6 5 8 3 4 9 8 8 11 8 8 5 5 8 3 4 12 13 3 7 nan 9 6 8 6 7 5 7 6 10 11 10 8 8 8 4 5 8 4 4 4 6 5 6 8 8 9 10 9 10 11 11 12 12 11 10 10 10 10 10 11 11 13 16 19 20 28 37
2 2 1 2 1 0 1 1 2 1 3 5 4 3 4 3 2 5 6 5 8 6 5 7 7 6 4 1 7 7 8 12 9 8 10 12 4 6 2 4 5 4 5 6 12 9 8 13 10 10 8 6 8 11 9 4 3 4 1 4 7 8 8 9 9 9 10 10 10 12 13 13 12 11 10 11 12 11 12 12 13 15 18 20 31
4 3 2 1 1 0 0 3 1 1 2 2 3 7 1 5 4 3 4 6 6 6 6 6 8 5 4 5 8 5 3 5 8 4 4 10 10 4 6 1 4 5 5 11 14 13 9 8 10 11 8 4 7 12 8 7 8 9 6 5 7 8 9 9 9 9 10 10 10 10 11 12 13 12 12 12 12 13 13 13 13 14 15 18 19
4 4 3 2 1 1 1 3 3 1 1 3 6 5 6 4 4 5 4 4 5 7 9 7 4 6 10 6 4 4 6 7 7 9 6 5 4 4 6 10 10 8 5 8 12 13 12 9 10 8 6 7 7 10 8 6 8 9 8 7 8 9 10 10 10 10 10 10 10 9 10 11 12 12 13 13 13 13 14 14 14 14 15 16 17
3 5 4 3 2 3 3 3 3 3 3 3 5 2 3 3 3 3 2 2 3 6 6 7 8 6 6 8 8 5 2 2 3 4 8 4 3 7 6 11 6 8 6 8 10 13 15 14 11 7 6 7 6 7 9 8 3 7 10 11 10 11 11 11 12 12 11 10 10 10 10 10 11 11 12 13 13 14 14 14 14 14 15 15 15
5 5 4 4 4 3 4 4 3 4 5 5 5 4 3 2 3 3 4 4 4 2 3 5 7 8 5 5 5 7 7 7 5 4 5 7 9 4 6 7 9 7 5 9 6 11 9 16 11 10 5 5 4 7 6 5 2 3 12 12 13 13 13 13 13 13 12 11 11 12 12 12 11 11 12 12 14 14 14 14 14 14 14 15 15
4 4 5 5 4 4 5 3 5 2 4 5 4 4 2 2 2 1 2 2 1 3 3 4 5 6 6 4 4 1 4 4 7 7 9 7 7 9 10 11 6 6 7 11 6 6 12 11 14 9 6 4 5 3 5 4 7 5 12 12 13 14 14 14 13 14 14 12 13 14 13 13 13 12 12 12 13 14 14 15 15 13 14 14 15
1 3 4 5 3 3 5 4 4 4 3 4 4 4 4 1 1 2 0 1 2 3 4 5 5 3 5 2 1 3 4 4 4 5 3 7 8 9 2 5 11 6 11 6 1 7 11 11 12 13 9 4 5 2 3 4 3 3 7 14 14 14 16 15 15 14 13 13 13 13 15 15 15 14 13 13 13 14 14 14 15 14 13 14 14
2 3 3 4 3 3 4 3 3 4 4 4 4 5 6 5 3 1 1 1 1 1 2 2 1 3 4 6 5 4 5 4 3 6 8 5 2 4 8 9 7 12 5 5 6 9 7 11 8 7 10 5 6 4 0 2 3 4 9 14 14 16 15 15 16 14 14 13 13 13 13 15 16 15 15 15 16 15 15 15 15 15 14 14 14
3 2 2 4 3 3 3 3 3 3 3 3 4 3 3 4 2 1 2 2 1 1 1 2 1 1 2 3 4 6 6 6 6 4 4 4 9 8 6 2 3 9 4 7 7 5 8 19 9 3 5 2 4 7 3 5 8 6 5 5 13 14 15 15 16 16 14 14 15 15 15 16 18 18 17 17 17 17 16 15 15 15 15 15 14
4 3 1 3 2 2 2 2 2 2 2 3 2 1 0 1 3 1 3 5 1 1 1 2 2 2 0 1 2 2 4 5 1 4 5 3 9 3 6 2 2 1 6 8 10 9 11 8 15 4 3 4 3 5 6 4 4 4 6 5 5 12 15 14 16 15 15 15 16 17 17 18 19 20 19 19 18 18 17 17 17 17 16 16 15
3 5 4 3 3 3 3 2 1 2 2 2 2 1 1 0 1 1 1 2 4 2 1 1 1 1 1 1 3 3 3 4 6 4 5 6 4 4 3 6 4 3 2 3 4 5 8 11 17 14 14 8 5 4 7 6 6 6 9 5 3 8 12 13 13 13 14 15 17 18 18 19 21 21 21 21 20 20 20 19 18 18 18 18 18
2 4 4 4 4 3 3 3 3 1 1 1 1 1 1 1 1 1 1 1 5 3 1 1 1 1 3 4 2 1 2 5 3 2 5 4 2 2 3 4 7 4 3 3 4 1 3 3 8 9 7 10 8 6 6 6 4 7 2 5 5 3 11 11 10 10 13 15 16 17 18 18 21 21 22 22 22 22 22 21 20 19 19 19 19
3 6 5 6 5 3 4 4 5 3 3 3 2 1 1 1 1 2 1 2 4 3 2 2 1 1 0 1 2 2 2 2 3 1 5 5 1 1 3 5 6 4 4 3 3 2 1 3 1 8 12 6 5 5 4 3 12 6 3 4 4 4 3 3 9 10 12 15 16 17 17 18 18 19 19 20 21 21 22 22 21 21 20 19 19
6 8 6 6 6 6 4 5 6 6 6 4 5 3 2 2 2 1 2 3 3 3 2 1 1 1 2 2 3 2 3 3 4 3 3 3 4 3 3 4 3 3 2 3 2 4 2 1 0 2 1 3 5 2 2 1 8 1 4 3 5 6 8 7 9 11 12 14 16 17 18 18 17 17 18 18 18 19 20 20 21 21 20 19 19
6 7 5 5 7 6 6 4 6 6 7 5 5 6 4 3 2 2 8 6 2 3 2 2 2 3 3 2 3 3 2 2 2 2 3 3 4 4 4 5 5 3 4 3 2 2 2 1 2 2 2 5 2 4 4 4 4 9 2 4 5 3 8 7 13 15 14 14 16 17 18 17 17 17 18 18 19 19 19 20 20 20 20 19 18
9 9 6 5 7 6 5 6 5 7 8 6 7 5 6 4 3 5 9 7 4 2 3 2 3 3 4 3 3 2 3 2 2 1 2 3 3 4 3 4 3 4 4 6 3 2 3 3 3 3 4 3 3 3 2 1 2 2 3 2 3 5 5 4 1 15 15 16 17 18 18 17 17 17 17 17 18 18 19 19 19 19 19 19 19
9 9 8 7 7 7 6 6 5 7 8 9 9 5 4 6 4 4 8 8 4 2 4 3 2 3 3 2 1 0 1 1 2 2 1 2 1 1 4 3 4 4 6 4 3 2 1 2 4 3 3 3 1 4 2 1 1 0 1 1 3 3 3 1 3 10 16 16 17 18 17 17 17 16 16 16 17 17 18 18 18 19 19 19 19
11 8 10 7 9 8 6 7 7 6 8 7 6 6 7 7 5 3 7 8 5 3 4 2 2 2 2 2 1 1 1 1 1 1 3 3 5 6 6 6 5 4 4 5 3 1 2 1 2 1 4 3 2 2 2 1 1 2 0 1 1 1 0 1 1 4 18 16 17 17 17 17 17 16 14 15 16 17 17 17 18 18 18 18 18
11 10 9 9 11 10 8 7 8 7 7 7 6 7 7 7 6 5 5 7 7 6 4 3 3 3 3 3 2 2 2 2 4 5 5 5 5 4 3 3 3 3 3 2 2 1 1 2 2 2 2 1 2 2 2 2 1 3 1 3 1 2 2 2 2 1 17 18 17 16 16 17 17 16 15 14 15 16 15 15 16 16 16 16 16
9 13 13 11 12 12 9 8 8 7 7 7 7 7 7 8 7 7 7 7 7 7 5 5 4 4 4 3 3 3 3 3 2 2 2 1 2 3 2 2 2 3 3 3 2 1 1 2 2 2 1 1 2 2 3 2 3 2 4 3 3 4 5 4 3 3 10 22 18 15 15 17 17 15 14 14 15 15 15 14 13 13 14 14 15
10 10 14 13 13 12 10 9 9 9 8 7 8 7 8 8 9 9 9 8 8 7 7 6 5 4 4 3 3 4 4 3 3 2 2 3 2 1 2 2 2 2 2 1 1 1 0 1 1 2 1 1 2 3 3 3 2 4 4 3 4 6 6 4 4 5 3 4 5 8 12 13 14 15 15 13 14 15 15 14 13 13 13 13 13
12 12 12 14 14 14 12 10 9 10 9 8 9 9 9 9 9 9 9 10 8 8 8 7 6 6 5 4 4 3 3 3 3 2 1 1 1 2 3 3 2 2 2 2 2 2 1 0 0 1 2 3 5 5 5 4 3 3 4 4 5 6 7 6 5 5 5 4 4 7 8 7 7 14 13 13 11 13 13 13 13 13 12 13 13
13 13 12 14 15 15 14 12 11 11 12 9 9 10 10 11 12 11 10 11 10 9 9 9 8 7 7 5 4 4 4 4 3 4 3 4 5 4 5 6 6 6 5 5 5 5 4 3 4 5 6 5 3 5 4 4 5 6 6 7 6 7 7 7 7 5 6 4 3 3 6 10 6 11 12 11 11 11 13 12 13 13 14 13 14
16 15 14 14 15 16 16 14 13 12 11 12 11 12 14 12 11 12 12 11 11 11 11 10 10 10 9 8 6 5 6 6 11 13 15 15 10 8 8 8 8 8 7 7 7 7 7 5 5 6 4 4 4 4 4 7 6 6 6 6 7 7 7 6 7 5 3 3 3 2 3 2 1 4 5 4 5 9 10 14 12 15 14 14 14
17 18 17 15 15 16 16 17 15 14 13 13 15 15 18 16 10 13 13 12 12 12 13 13 11 11 10 9 8 5 16 14 14 11 11 11 12 9 10 10 10 9 9 8 8 8 8 7 6 6 5 5 6 7 7 6 5 4 6 10 8 7 6 6 7 7 4 1 1 5 4 2 2 3 4 4 7 8 7 12 12 13 16 16 15
18 19 19 17 17 16 17 17 17 15 17 17 24 20 24 20 16 16 14 15 15 14 13 14 13 12 11 10 8 17 19 16 14 15 12 11 10 9 8 8 9 9 8 7 8 8 8 8 8 7 7 8 8 8 7 6 7 10 10 9 8 8 8 7 7 8 10 5 3 3 6 5 2 0 2 3 5 8 9 10 19 18 20 20 18
18 18 19 20 19 18 18 18 17 17 22 32 30 31 27 23 18 17 16 15 16 15 14 14 14 12 11 10 9 10 12 12 10 14 14 12 10 9 8 8 8 7 6 8 8 8 7 8 8 9 9 9 9 9 8 9 11 11 10 9 9 8 9 8 8 8 13 10 5 3 3 7 5 2 3 3 2 5 8 22 24 24 22 21 20
17 17 18 20 21 21 20 19 20 20 32 35 35 29 31 28 27 21 16 16 17 16 15 15 14 14 13 12 11 12 19 19 16 15 15 12 12 10 9 9 8 5 5 5 5 6 7 7 8 8 9 10 9 10 10 10 10 8 9 9 11 11 11 10 10 11 14 15 8 3 3 8 10 6 5 6 5 6 8 17 18 21 23 22 21
20 19 19 20 22 23 23 24 25 38 37 37 34 36 32 33 30 26 19 16 17 17 16 15 15 14 14 13 14 13 13 12 13 12 11 11 13 13 12 10 9 8 9 9 8 9 9 8 8 9 10 10 9 10 12 12 10 11 12 12 13 13 13 11 11 11 11 12 8 6 6 9 11 10 9 9 8 7 8 11 15 17 19 20 20
24 25 27 26 28 25 24 26 31 40 39 38 38 37 37 31 31 25 24 19 18 17 17 15 16 16 16 13 16 15 16 25 28 27 25 21 16 15 12 10 9 9 9 9 11 13 13 12 10 10 11 11 12 15 16 16 15 14 14 12 12 11 9 7 9 10 10 12 9 8 6 9 13 13 13 12 9 11 11 15 17 17 18 19 18
29 28 28 28 30 34 41 42 40 38 39 42 38 40 39 38 30 28 24 23 19 18 16 16 17 16 15 15 18 23 31 28 30 32 30 24 22 17 15 15 17 15 17 20 21 19 15 13 12 12 16 20 19 16 16 17 17 15 15 14 14 14 10 9 10 12 11 13 13 12 10 10 12 12 14 15 14 14 15 14 19 20 19 18 18
30 30 32 39 37 36 37 38 39 39 42 42 42 43 43 39 33 29 27 24 22 17 17 18 18 20 30 30 31 30 28 31 29 33 31 26 21 19 18 17 15 15 15 18 26 19 15 16 18 19 18 15 13 11 11 12 16 18 17 15 15 15 13 10 11 12 13 15 17 14 13 12 14 15 15 16 17 15 14 16 18 19 19 19 20
33 34 40 36 35 36 36 40 42 44 46 48 48 48 47 45 37 32 27 25 22 19 19 23 25 37 33 41 40 35 33 31 33 34 32 25 23 22 21 20 20 19 22 24 22 22 19 18 16 14 16 15 13 11 11 12 12 20 20 15 14 15 13 13 12 12 13 17 19 21 18 17 16 16 15 15 15 17 17 17 19 20 24 23 20
30 33 36 34 35 36 32 37 47 49 51 52 53 50 49 49 43 34 31 29 30 30 35 34 41 36 33 37 44 39 36 33 35 35 34 31 26 25 24 23 23 23 26 27 25 24 24 23 22 21 21 20 20 20 19 18 18 23 23 18 16 16 15 16 14 15 16 21 27 25 20 20 19 17 17 16 14 17 19 19 19 19 19 21 22
Wind_Direction
97 97 92 91 100 104 106 122 129 133 130 128 128 129 128 137 139 138 139 141 142 139 132 132 119 119 107 101 116 106 110 116 120 126 127 116 114 97 80 78 82 81 80 81 80 79 76 74 72 71 71 69 69 68 66 65 65 64 63 60 57 55 55 54 53 50 46 41 30 35 32 29 26 35 37 43 46 43 37 36 38 42 42 43 44
76 86 98 107 106 110 125 129 130 130 120 127 130 130 135 138 141 138 143 135 148 146 128 126 118 134 124 116 98 92 97 106 115 119 119 123 117 105 76 78 78 78 77 79 80 79 77 75 73 71 70 69 68 67 66 66 65 65 63 61 60 58 55 54 53 51 49 48 42 32 34 33 28 30 35 33 42 46 42 39 38 43 44 46 47
99 102 109 113 119 123 130 128 124 124 132 136 135 137 136 139 144 143 143 143 140 136 125 131 130 104 108 100 98 106 109 106 100 105 123 124 118 105 87 70 73 72 74 75 78 77 78 77 75 72 71 70 68 68 67 67 67 67 67 65 63 60 59 56 54 54 51 51 50 42 38 37 34 33 35 36 39 43 46 45 39 42 44 47 49
104 104 109 114 120 125 128 132 136 131 134 139 137 137 138 142 148 151 153 146 138 130 125 122 114 122 99 118 112 104 104 106 113 138 138 125 116 110 100 84 66 68 69 73 74 76 77 76 75 74 73 72 72 71 70 70 70 71 71 69 65 63 61 59 56 54 53 50 48 50 49 41 37 36 36 37 39 42 45 45 39 42 43 44 51
116 116 115 120 126 124 127 127 130 136 136 137 141 143 141 141 147 143 133 143 136 134 124 119 130 125 101 104 104 106 108 107 110 109 127 117 116 117 110 89 78 65 67 69 71 75 75 76 76 75 74 74 74 73 73 72 72 70 70 68 66 64 62 59 54 50 50 51 49 48 46 46 42 37 39 39 40 46 50 45 40 43 42 45 48
118 118 121 121 123 125 129 134 135 137 138 136 141 139 138 144 156 142 134 127 132 132 123 125 111 100 120 113 111 117 103 118 124 128 115 144 134 117 112 108 97 83 78 68 74 73 76 77 76 76 77 77 76 75 75 73 69 65 64 64 62 61 60 57 54 51 50 50 49 47 47 45 39 35 36 39 40 45 48 46 43 44 43 44 47
125 123 121 125 126 130 133 134 136 137 137 140 140 141 151 148 141 139 148 136 132 135 125 123 124 nan 131 124 125 110 116 132 128 122 143 140 131 145 131 131 125 124 97 84 77 76 77 75 77 80 79 80 78 79 76 71 66 62 58 57 58 56 58 52 52 50 47 48 50 43 48 45 44 40 42 38 40 45 47 47 44 44 45 46 47
125 125 131 119 129 129 132 136 135 136 141 148 136 136 132 139 140 131 129 134 143 128 122 118 122 122 118 99 114 104 105 124 106 118 146 128 142 137 142 140 137 140 126 129 101 78 66 73 77 76 79 77 81 80 78 71 66 61 54 53 52 53 51 48 49 48 48 47 48 50 45 44 44 41 40 38 38 43 45 45 44 42 45 47 49
121 120 116 127 128 129 129 131 137 151 137 129 113 131 139 135 149 132 143 138 130 130 122 118 109 99 82 124 140 124 125 104 116 150 145 151 128 124 130 153 126 107 116 135 131 96 59 69 70 73 69 75 78 79 76 76 71 65 54 46 46 44 45 44 41 41 40 39 43 42 41 41 44 45 40 38 40 41 44 44 44 44 43 43 46
122 124 120 120 121 121 130 131 135 127 112 115 123 121 104 119 136 141 136 129 112 134 115 109 113 115 134 145 125 118 124 118 143 129 137 138 156 159 163 147 175 172 168 145 144 132 93 55 56 61 52 55 63 65 71 76 77 71 56 46 41 37 37 37 38 37 34 36 41 43 40 35 35 36 40 38 39 42 44 44 42 44 45 43 44
120 124 125 126 128 131 127 126 142 139 137 147 136 150 155 142 117 143 139 117 133 137 137 124 133 132 125 152 140 142 142 150 103 120 137 173 157 121 162 165 175 164 136 153 195 167 156 143 66 58 39 29 39 50 57 74 75 76 62 47 41 37 33 32 33 37 32 29 32 39 36 36 33 34 36 39 40 39 42 47 43 43 44 45 45
120 127 129 124 121 121 125 113 124 155 137 129 150 126 145 123 128 132 103 103 115 126 119 125 149 155 160 159 148 146 146 142 135 118 129 121 139 115 202 190 192 169 192 177 197 185 158 165 159 139 51 27 12 21 31 49 77 73 67 54 43 37 33 29 28 27 25 21 25 30 31 36 38 36 40 40 37 38 42 45 47 42 44 44 44
123 123 128 128 125 124 118 115 110 115 108 109 137 145 135 136 126 116 122 123 134 149 146 148 166 157 155 168 160 125 172 108 100 104 106 168 148 163 168 198 213 215 207 204 179 213 182 213 163 167 170 52 33 7 356 11 67 72 73 61 51 39 32 30 24 18 14 16 20 23 25 30 36 40 43 41 40 41 43 43 46 45 42 44 44
114 119 114 109 113 114 112 113 116 111 112 117 115 108 127 113 136 132 138 148 163 161 174 144 118 163 149 180 193 159 134 111 98 109 124 180 191 172 133 235 241 241 227 215 229 197 227 206 232 207 183 188 130 33 44 21 39 77 81 76 58 43 31 28 22 16 11 13 18 22 20 19 25 38 43 46 45 43 44 47 45 46 45 44 45
98 98 97 92 103 102 119 95 91 72 73 75 84 99 109 138 131 185 151 145 179 167 166 151 164 172 187 164 132 225 148 129 148 146 160 155 178 167 156 242 230 231 257 244 270 264 255 235 252 257 259 214 161 112 223 30 15 29 65 78 73 49 32 25 21 16 10 8 12 12 13 11 13 24 37 45 45 45 47 47 46 45 46 46 44
76 58 58 115 89 80 36 46 91 87 83 85 93 106 123 123 161 173 177 110 137 194 182 181 172 164 146 165 121 352 107 114 109 150 165 150 143 268 240 261 272 344 280 272 248 264 259 264 250 282 297 300 301 236 253 254 336 341 6 61 67 64 39 22 19 17 11 6 5 2 3 5 4 11 22 39 50 48 48 49 48 46 51 46 45
40 67 341 342 51 117 153 33 41 52 59 81 88 97 123 186 179 147 163 154 194 196 188 201 196 184 195 162 175 174 150 152 163 149 147 173 213 nan 164 228 242 231 228 232 258 249 257 265 260 269 295 292 289 279 244 283 337 337 354 19 55 55 41 27 18 18 13 7 2 357 356 359 2 5 13 21 36 48 50 51 52 52 56 46 41
5 26 314 334 332 295 112 89 4 92 88 110 141 156 117 131 181 155 186 187 160 162 233 189 223 197 230 248 168 184 149 158 139 170 150 156 207 196 199 265 275 294 309 287 257 245 259 292 276 268 262 267 276 259 271 273 271 262 318 23 50 37 36 32 26 17 18 11 7 360 354 356 358 1 7 15 23 32 42 47 46 54 57 50 43
348 352 336 330 311 307 138 99 112 359 115 133 111 96 122 162 174 196 167 192 162 170 178 217 185 193 224 210 177 190 177 125 166 144 164 161 168 240 239 207 278 273 277 286 292 273 256 249 268 268 273 285 290 285 293 291 277 283 288 359 39 33 23 29 31 27 18 17 13 10 360 355 359 2 6 13 19 24 30 35 42 44 48 50 50
339 331 7 357 48 47 87 114 120 129 123 113 120 145 190 176 172 189 192 166 177 176 170 195 223 203 193 178 271 224 173 178 159 176 193 168 178 211 246 226 224 232 236 271 278 281 275 287 296 282 279 275 256 276 289 276 265 314 326 7 31 33 27 21 25 27 23 16 21 20 10 4 0 1 5 10 18 22 24 30 36 39 39 43 49
353 351 11 25 46 77 82 110 119 136 121 127 114 162 137 182 158 172 172 156 172 200 169 177 165 241 208 193 184 177 192 243 257 155 167 185 216 220 213 224 210 227 217 235 269 297 305 275 269 282 297 299 286 264 254 233 317 328 317 350 26 32 28 19 18 20 19 25 25 30 24 18 13 9 8 10 14 19 24 30 33 35 38 40 44
353 8 3 38 57 71 81 82 104 107 114 152 156 188 149 149 134 124 188 190 195 185 186 181 183 190 229 216 190 200 177 185 180 200 225 167 196 198 252 249 227 242 212 232 241 281 251 287 307 300 312 296 290 298 283 314 38 301 310 342 21 30 27 22 19 14 14 27 31 34 37 36 33 24 18 15 13 18 24 27 32 35 39 42 41
360 358 15 31 42 72 88 71 94 129 115 147 125 119 79 79 58 208 167 168 160 219 190 185 200 187 188 223 165 229 223 194 201 195 192 186 221 185 206 262 286 257 246 238 209 251 290 294 286 264 284 321 314 324 347 15 56 302 320 354 15 24 25 24 18 15 11 28 37 35 38 40 38 40 34 24 19 19 23 23 28 35 40 45 46
4 334 13 25 21 60 84 100 100 116 101 114 121 129 133 260 239 267 345 149 177 167 168 188 177 232 163 220 199 198 259 177 228 275 251 217 189 246 255 214 232 234 268 283 300 263 245 276 314 328 306 322 325 347 48 339 18 355 41 358 15 21 21 22 21 17 21 27 35 44 42 44 48 45 43 38 30 25 23 25 27 34 38 43 49
334 345 8 28 347 28 63 71 83 96 118 132 150 160 168 167 249 324 294 305 358 347 32 46 88 176 184 189 179 198 222 223 203 203 244 232 251 216 204 198 226 219 213 255 260 267 299 250 237 276 311 351 313 307 349 25 342 38 112 350 18 16 17 21 19 19 23 31 37 41 46 48 48 45 43 45 45 37 31 29 30 32 37 42 47
323 325 343 354 4 353 27 57 72 87 104 118 130 145 168 159 227 209 314 304 225 281 100 76 59 49 59 161 185 192 193 217 222 252 222 230 236 219 261 217 137 308 268 254 261 269 284 285 353 322 291 304 267 304 31 54 12 2 96 105 10 15 14 16 22 18 21 30 38 42 42 41 43 42 41 46 47 44 36 36 37 35 35 41 45
275 286 287 298 336 323 351 38 16 60 69 83 75 75 176 161 189 205 197 280 317 311 14 63 39 342 265 106 168 136 203 216 211 224 246 239 268 279 248 289 267 96 325 313 304 334 312 337 273 277 316 32 335 3 36 31 51 47 89 102 344 10 14 17 19 18 20 25 35 40 39 40 39 39 41 44 47 48 43 41 39 39 40 39 44
241 284 298 299 302 304 316 349 330 7 42 59 77 59 358 285 226 239 283 289 298 316 353 89 49 342 33 205 201 156 183 196 206 216 241 246 252 293 302 300 290 314 315 349 313 315 322 315 334 352 357 354 353 43 17 28 70 18 28 77 59 4 18 15 12 16 18 26 34 37 35 35 39 40 41 42 44 47 50 48 44 41 42 41 41
268 274 292 296 291 301 301 309 296 281 317 312 17 150 259 321 313 255 233 234 271 270 215 236 183 145 343 348 328 238 196 224 197 167 252 245 240 246 305 284 284 310 308 286 282 288 302 329 313 349 312 354 4 41 18 33 33 55 70 73 106 69 354 12 357 8 21 22 28 33 35 31 37 39 39 39 42 44 47 50 51 47 43 43 43
217 268 283 290 285 282 276 263 278 281 270 284 281 286 255 254 275 272 254 219 248 247 231 183 259 331 221 269 296 278 274 289 322 323 270 293 267 309 281 284 304 309 288 306 313 336 8 288 318 314 356 21 344 354 52 3 332 55 103 95 103 146 275 66 353 6 19 21 21 25 27 29 29 31 33 36 38 40 44 47 48 49 48 46 46
253 229 269 278 276 280 261 271 263 266 269 270 280 274 273 244 230 292 311 304 255 249 234 226 186 242 233 244 246 256 234 226 216 235 263 278 300 294 249 262 277 271 282 300 322 294 254 122 158 229 253 338 278 312 342 353 356 58 123 135 134 175 135 93 18 12 13 19 18 15 16 20 26 28 29 32 36 37 38 43 46 46 47 47 44
250 264 256 276 284 286 287 282 285 281 280 278 280 278 265 271 277 245 231 222 238 265 234 195 208 257 266 254 242 252 248 248 262 241 263 283 248 231 239 242 257 265 283 281 273 256 279 174 207 207 227 240 253 294 294 29 299 352 234 123 136 114 85 100 12 13 2 11 15 8 8 14 23 31 35 35 37 37 38 40 42 44 44 46 46
267 269 269 266 278 282 281 280 279 277 273 268 264 258 273 265 254 265 262 234 219 238 253 213 189 222 247 240 237 235 222 195 231 228 235 274 299 293 284 281 292 289 278 275 268 270 267 256 246 240 232 250 256 262 309 321 62 246 178 108 117 96 104 133 345 0 358 3 8 6 7 12 19 30 38 41 40 39 40 41 42 42 43 44 44
256 270 274 272 276 279 284 284 270 275 282 275 281 292 288 280 279 274 288 297 281 199 227 244 230 201 237 252 231 233 287 231 183 189 227 221 263 329 302 301 288 283 276 271 280 258 207 275 280 295 308 284 345 287 279 41 208 325 45 87 84 96 102 221 137 336 353 1 3 6 5 6 15 22 34 40 41 42 42 43 42 41 40 39 40
266 254 269 266 269 273 270 276 278 274 278 282 284 277 277 285 284 261 279 294 289 264 275 249 216 245 235 220 204 193 216 257 260 217 210 193 201 206 200 220 215 223 245 274 281 232 164 190 262 299 298 304 313 305 327 327 342 12 265 88 207 147 245 183 172 269 347 1 4 7 360 5 9 16 23 32 37 37 40 39 37 38 37 36 37
263 266 259 265 268 263 265 267 280 276 278 275 273 275 275 281 282 271 243 271 275 271 255 251 258 247 234 216 197 187 201 205 205 199 200 204 210 220 220 220 235 229 247 269 285 293 167 161 220 251 264 281 339 325 324 300 267 245 280 267 297 297 247 272 288 227 341 6 11 6 359 5 6 6 12 23 28 29 33 34 34 32 33 36 37
250 267 270 262 265 268 263 270 273 275 274 276 272 268 274 275 275 276 275 274 274 267 260 255 235 234 232 216 218 216 205 198 217 202 210 232 225 228 224 248 242 246 248 241 244 239 181 151 182 229 241 356 331 313 280 266 249 271 264 271 273 290 299 299 307 265 334 5 14 6 358 8 6 2 7 13 18 23 23 25 27 29 29 33 36
268 262 272 272 270 272 266 265 269 271 271 269 269 264 267 269 270 269 269 270 276 275 274 268 260 256 248 239 220 208 203 221 207 215 205 202 205 195 193 222 224 226 225 257 280 312 42 127 144 172 283 239 261 262 262 265 245 235 246 269 279 279 285 280 267 286 263 285 294 330 357 8 1 7 8 3 11 15 18 17 19 21 23 24 28
266 264 263 273 270 271 271 265 266 269 269 268 265 268 259 257 260 261 258 266 258 267 270 263 262 265 261 256 251 227 222 221 223 225 236 252 246 199 233 225 238 249 263 253 288 304 295 298 248 236 226 239 228 224 239 240 255 276 253 252 253 261 269 276 288 286 291 282 303 7 40 72 343 350 4 6 359 10 12 11 12 12 11 12 12
265 266 265 267 269 267 269 268 264 266 265 264 272 271 260 257 259 254 254 249 253 253 253 259 254 253 261 257 246 260 262 250 242 233 237 221 227 227 242 250 247 248 249 249 243 249 247 232 229 224 228 227 239 243 237 273 268 268 271 257 269 271 279 293 292 274 285 309 330 298 336 355 5 357 9 356 360 3 3 360 5 357 358 358 359
263 266 265 265 267 270 269 267 268 265 269 262 247 259 259 258 252 258 254 253 250 245 246 248 255 251 243 249 249 250 264 273 254 236 231 236 228 231 241 246 249 252 259 262 260 257 258 254 246 253 253 257 255 269 256 249 245 240 263 282 276 274 274 277 286 297 304 327 323 322 305 233 147 182 215 251 311 354 347 354 338 343 344 344 349
255 256 259 261 266 269 273 272 269 266 263 261 260 254 275 257 249 256 256 253 250 248 248 250 247 252 256 250 256 261 269 273 274 273 261 258 252 231 235 240 242 249 253 259 266 271 269 266 263 254 246 242 233 236 226 220 227 246 247 247 247 246 267 277 292 309 318 312 345 316 325 336 163 199 209 203 195 281 273 295 304 310 322 335 333
256 258 258 261 263 265 269 273 272 263 259 259 278 280 272 247 244 256 255 253 258 252 250 253 248 251 258 264 254 280 286 290 286 283 283 277 278 271 262 255 257 257 256 255 257 256 258 262 265 265 258 252 245 235 222 209 213 220 224 238 230 238 243 244 255 284 305 297 283 293 315 312 284 194 283 223 213 213 224 229 290 316 310 318 323
266 264 268 269 264 262 263 265 268 264 257 237 276 278 276 274 255 243 248 252 255 254 254 255 259 256 255 256 263 268 278 278 262 282 281 284 284 287 282 278 276 283 270 265 262 262 265 266 268 265 256 259 257 254 232 216 217 217 222 227 236 238 239 244 253 257 268 273 269 261 279 288 298 297 272 273 253 237 231 274 291 299 305 308 313
267 271 271 271 275 271 263 261 262 260 257 249 237 249 268 267 259 248 242 238 247 253 254 257 256 258 255 250 243 238 254 274 273 276 287 291 299 297 295 284 284 295 302 308 297 280 261 258 255 256 258 250 247 256 251 242 238 230 233 238 249 246 243 242 243 235 244 257 266 278 254 272 284 287 279 282 256 234 233 290 302 302 303 304 304
255 262 267 268 269 268 263 256 254 251 252 236 241 245 248 259 261 254 249 242 241 242 245 247 252 256 253 252 253 250 250 260 251 257 266 268 270 278 280 283 281 300 323 333 339 344 324 288 264 268 269 267 261 256 254 257 254 252 247 248 250 251 247 244 233 236 248 261 272 254 256 269 277 285 287 279 275 265 276 250 288 298 301 303 303
251 248 251 253 251 254 257 252 248 253 247 235 238 242 244 245 253 255 250 246 245 249 251 252 243 249 259 254 254 252 248 244 237 230 238 238 242 242 242 249 264 265 273 292 299 292 288 286 290 286 280 272 267 255 252 254 254 258 263 261 259 259 260 262 269 269 270 283 276 275 269 266 272 280 277 275 264 269 261 267 295 309 311 309 310
254 253 256 260 259 254 253 251 253 248 245 236 235 239 241 244 247 251 253 253 250 247 252 254 259 253 255 251 252 246 247 244 237 236 237 237 238 237 236 236 236 235 242 247 241 228 235 262 272 261 252 253 254 252 257 263 266 267 269 271 272 280 287 290 288 282 284 282 286 285 282 270 267 267 272 270 268 268 269 264 283 306 310 316 315
259 259 255 248 248 255 259 262 259 256 255 242 233 236 239 238 242 248 247 251 253 256 255 258 258 254 242 243 249 255 258 253 245 242 239 237 247 244 244 247 250 252 257 262 269 267 252 239 246 253 255 251 254 257 258 260 274 272 272 273 280 287 293 293 290 291 293 284 278 276 272 267 265 266 265 269 270 267 265 269 270 290 314 314 310
252 251 251 258 255 254 256 261 261 261 257 246 236 232 233 232 232 236 243 247 250 250 251 246 255 253 246 243 249 254 254 253 246 246 240 244 248 247 246 246 247 248 250 254 261 265 272 274 265 271 278 276 269 270 278 285 286 287 286 285 276 273 279 279 279 280 274 274 275 272 273 272 262 264 263 269 277 283 274 271 276 279 296 293 301
256 252 262 258 257 255 248 250 260 261 257 251 243 237 233 231 231 234 236 239 237 235 239 238 238 247 244 243 246 248 252 253 250 251 246 245 249 248 248 249 250 252 255 251 253 255 256 256 261 263 265 272 277 275 277 296 306 297 294 294 282 277 273 274 273 267 268 274 272 266 269 269 267 269 269 265 268 275 280 278 274 273 272 274 286